Weather History for Winchester, TN

Change the Weather History Date:

Friday, January 10, 2014

  Actual Average (KTHA) Record (KTHA)
Temperature  
Mean Temperature 48 °F -  
Max Temperature 53 °F 45 °F 64 °F (2013)
Min Temperature 42 °F 27 °F 42 °F (2014)
Degree Days  
Heating Degree Days 18    
Moisture  
Dew Point 45 °F    
Average Humidity 90    
Maximum Humidity 100    
Minimum Humidity 82    
Precipitation  
Precipitation 0.00 in - - ()
Sea Level Pressure  
Sea Level Pressure 30.11 in    
Wind  
Wind Speed 9 mph (SE)    
Max Wind Speed 20 mph    
Max Gust Speed -    
Visibility 10 miles    
Events      
Averages and records for this station are not official NWS values.
T = Trace of Precipitation, MM = Missing Value Source: NWS Daily Summary

Daily Weather History Graph

Daily Weather History Graph

Search for Another Location

Airport:

Trip Planner

Search our weather history database for the weather conditions in past years. The results will help you decide how hot, cold, wet, or windy it might be!

Date:

Astronomy

Jan. 10, 2014 Rise Set
Actual Time 7:53 AM EST 5:50 PM EST
Civil Twilight 7:25 AM EST 6:18 PM EST
Nautical Twilight 6:53 AM EST 6:50 PM EST
Astronomical Twilight 6:23 AM EST 7:20 PM EST
Moon 1:51 PM EST (1/10) 3:03 AM EST (1/10)
Length of Visible Light 10h 53m
Length of Day
9h 57m
Waxing Gibbous, 75% of the Moon is Illuminated
Jan 10
Waxing Gibbous
Jan 15
Full
Jan 24
Last Quarter
Jan 30
New
Feb 6
First Quarter

Hourly Weather History & Observations

Time (EST) Temp. Windchill Dew Point Humidity Pressure Visibility Wind Dir Wind Speed Gust Speed Precip Events Conditions
12:35 AM 44.6 °F 38.8 °F 41.0 °F 87% 30.28 in 10.0 mi SE 11.5 mph - N/A   Overcast
12:55 AM 44.6 °F 38.1 °F 41.0 °F 87% 30.27 in 10.0 mi SE 13.8 mph - N/A   Overcast
1:15 AM 44.6 °F 40.7 °F 41.0 °F 87% 30.27 in 10.0 mi SE 6.9 mph - N/A   Overcast
1:35 AM 42.8 °F 38.0 °F 41.0 °F 93% 30.27 in 10.0 mi South 8.1 mph - N/A   Overcast
1:55 AM 44.6 °F 40.7 °F 41.0 °F 87% 30.27 in 10.0 mi SE 6.9 mph - N/A   Overcast
2:15 AM 44.6 °F 40.7 °F 41.0 °F 87% 30.26 in 10.0 mi SE 6.9 mph - N/A   Overcast
2:35 AM 44.6 °F 40.2 °F 41.0 °F 87% 30.26 in 10.0 mi SE 8.1 mph - N/A   Overcast
2:55 AM 44.6 °F 39.7 °F 41.0 °F 87% 30.26 in 10.0 mi ESE 9.2 mph - N/A   Overcast
3:15 AM 44.6 °F 40.7 °F 41.0 °F 87% 30.26 in 10.0 mi ESE 6.9 mph - N/A   Overcast
3:35 AM 44.6 °F 40.7 °F 41.0 °F 87% 30.26 in 10.0 mi SSE 6.9 mph - N/A   Overcast
3:55 AM 44.6 °F 41.4 °F 42.8 °F 93% 30.26 in 10.0 mi South 5.8 mph - N/A   Overcast
4:15 AM 44.6 °F 40.7 °F 42.8 °F 93% 30.26 in 10.0 mi South 6.9 mph - N/A   Overcast
4:35 AM 44.6 °F 40.7 °F 42.8 °F 93% 30.25 in 10.0 mi SSE 6.9 mph - N/A   Overcast
4:55 AM 44.6 °F - 42.8 °F 93% 30.25 in 10.0 mi Calm Calm - N/A   Overcast
5:15 AM 42.8 °F 40.1 °F 41.0 °F 93% 30.24 in 10.0 mi ESE 4.6 mph - N/A   Overcast
5:35 AM 44.6 °F 42.2 °F 42.8 °F 93% 30.23 in 10.0 mi SE 4.6 mph - N/A   Overcast
5:55 AM 44.6 °F 40.7 °F 42.8 °F 93% 30.24 in 10.0 mi SE 6.9 mph - N/A   Overcast
6:15 AM 44.6 °F 42.2 °F 42.8 °F 93% 30.23 in 10.0 mi SE 4.6 mph - N/A   Overcast
6:35 AM 42.8 °F 39.3 °F 42.8 °F 100% 30.23 in 10.0 mi ESE 5.8 mph - N/A   Overcast
6:55 AM 42.8 °F 37.5 °F 42.8 °F 100% 30.21 in 10.0 mi SSE 9.2 mph - N/A   Overcast
7:15 AM 44.6 °F 39.2 °F 42.8 °F 93% 30.21 in 10.0 mi SSE 10.4 mph - N/A   Overcast
7:35 AM 44.6 °F 40.7 °F 42.8 °F 93% 30.21 in 10.0 mi SE 6.9 mph - N/A   Overcast
7:55 AM 44.6 °F 41.4 °F 42.8 °F 93% 30.21 in 10.0 mi SE 5.8 mph - N/A   Overcast
8:15 AM 44.6 °F 42.2 °F 42.8 °F 93% 30.21 in 10.0 mi SE 4.6 mph - N/A   Overcast
8:35 AM 44.6 °F 40.2 °F 42.8 °F 93% 30.21 in 10.0 mi SE 8.1 mph - N/A   Overcast
8:55 AM 44.6 °F 38.8 °F 42.8 °F 93% 30.21 in 10.0 mi SE 11.5 mph - N/A   Overcast
9:15 AM 44.6 °F 39.2 °F 42.8 °F 93% 30.21 in 10.0 mi SE 10.4 mph - N/A   Overcast
9:35 AM 46.4 °F 41.1 °F 44.6 °F 93% 30.21 in 10.0 mi SE 11.5 mph - N/A   Overcast
9:55 AM 46.4 °F 42.4 °F 44.6 °F 93% 30.22 in 10.0 mi SE 8.1 mph - N/A   Overcast
10:15 AM 48.2 °F - 44.6 °F 87% 30.21 in 10.0 mi SE 8.1 mph - N/A   Overcast
10:35 AM 48.2 °F - 44.6 °F 87% 30.21 in 10.0 mi SE 6.9 mph - N/A   Overcast
10:55 AM 48.2 °F - 44.6 °F 87% 30.20 in 10.0 mi SSE 8.1 mph - N/A   Overcast
11:15 AM 48.2 °F - 46.4 °F 93% 30.19 in 10.0 mi SSE 8.1 mph - N/A   Overcast
11:35 AM 48.2 °F - 46.4 °F 93% 30.18 in 10.0 mi SE 9.2 mph - N/A   Overcast
11:55 AM 48.2 °F - 46.4 °F 93% 30.16 in 10.0 mi SE 9.2 mph - N/A   Overcast
12:15 PM 48.2 °F - 46.4 °F 93% 30.14 in 10.0 mi SSE 9.2 mph - N/A   Overcast
12:35 PM 48.2 °F - 46.4 °F 93% 30.12 in 10.0 mi SSE 5.8 mph - N/A   Overcast
12:55 PM 50.0 °F - 46.4 °F 87% 30.11 in 10.0 mi SSE 8.1 mph - N/A   Overcast
1:15 PM 50.0 °F - 46.4 °F 87% 30.10 in 10.0 mi SE 12.7 mph - N/A   Overcast
1:35 PM 50.0 °F - 46.4 °F 87% 30.08 in 10.0 mi SE 8.1 mph - N/A   Overcast
1:55 PM 51.8 °F - 46.4 °F 82% 30.06 in 10.0 mi SE 10.4 mph - N/A   Overcast
2:15 PM 51.8 °F - 48.2 °F 88% 30.05 in 10.0 mi SE 9.2 mph - N/A   Overcast
2:35 PM 51.8 °F - 48.2 °F 88% 30.04 in 10.0 mi SSE 10.4 mph - N/A   Overcast
2:55 PM 53.6 °F - 48.2 °F 82% 30.02 in 10.0 mi SSE 10.4 mph - N/A   Overcast
3:15 PM 53.6 °F - 48.2 °F 82% 30.01 in 10.0 mi SSE 19.6 mph - N/A   Mostly Cloudy
3:35 PM 51.8 °F - 48.2 °F 88% 30.01 in 10.0 mi SSE 17.3 mph - N/A   Partly Cloudy
3:55 PM 51.8 °F - 48.2 °F 88% 30.01 in 10.0 mi SSE 16.1 mph - N/A   Mostly Cloudy
4:15 PM 51.8 °F - 48.2 °F 88% 30.01 in 10.0 mi SSE 12.7 mph - N/A   Overcast
4:35 PM 51.8 °F - 48.2 °F 88% 30.01 in 10.0 mi SSE 11.5 mph - N/A   Overcast
4:55 PM 51.8 °F - 48.2 °F 88% 30.01 in 10.0 mi South 9.2 mph - N/A   Overcast
5:15 PM 51.8 °F - 48.2 °F 88% 30.01 in 10.0 mi SSE 10.4 mph - N/A   Overcast
5:35 PM 51.8 °F - 48.2 °F 88% 30.00 in 10.0 mi SSE 10.4 mph - N/A   Overcast
5:55 PM 51.8 °F - 48.2 °F 88% 30.00 in 10.0 mi South 10.4 mph - N/A   Overcast
6:15 PM 51.8 °F - 48.2 °F 88% 30.00 in 10.0 mi South 10.4 mph - N/A   Overcast
6:35 PM 51.8 °F - 48.2 °F 88% 30.00 in 10.0 mi SSE 8.1 mph - N/A   Overcast
6:55 PM 51.8 °F - 48.2 °F 88% 29.99 in 10.0 mi South 10.4 mph - N/A   Overcast
7:15 PM 51.8 °F - 48.2 °F 88% 29.99 in 10.0 mi SSE 9.2 mph - N/A   Overcast
7:35 PM 51.8 °F - 48.2 °F 88% 29.98 in 10.0 mi SE 13.8 mph - N/A   Overcast
7:55 PM 51.8 °F - 48.2 °F 88% 29.98 in 10.0 mi SE 12.7 mph - N/A   Overcast
8:15 PM 51.8 °F - 48.2 °F 88% 29.98 in 10.0 mi SE 10.4 mph - N/A   Overcast
8:35 PM 50.0 °F - 48.2 °F 94% 29.98 in 10.0 mi SE 10.4 mph - N/A   Overcast
8:55 PM 50.0 °F - 48.2 °F 94% 29.98 in 10.0 mi SSE 9.2 mph - N/A   Overcast
9:15 PM 50.0 °F - 48.2 °F 94% 29.97 in 7.0 mi SE 9.2 mph - N/A   Overcast
9:35 PM 50.0 °F - 48.2 °F 94% 29.96 in 10.0 mi SE 10.4 mph - N/A   Overcast
9:55 PM 50.0 °F - 48.2 °F 94% 29.96 in 10.0 mi SE 10.4 mph - N/A   Overcast
10:15 PM 50.0 °F - 48.2 °F 94% 29.94 in 10.0 mi SE 9.2 mph - N/A   Overcast
10:35 PM 50.0 °F - 48.2 °F 94% 29.93 in 9.0 mi ESE 9.2 mph - N/A   Overcast
10:55 PM 51.8 °F - 48.2 °F 88% 29.93 in 10.0 mi SE 6.9 mph - N/A   Overcast
11:15 PM 51.8 °F - 50.0 °F 94% 29.90 in 10.0 mi SE 10.4 mph - N/A   Overcast
11:35 PM 51.8 °F - 50.0 °F 94% 29.89 in 10.0 mi SE 5.8 mph - N/A   Overcast
11:55 PM 51.8 °F - 51.8 °F 100% 29.87 in 4.0 mi SE 9.2 mph - N/A   Overcast